TimeCDT,TemperatureF,Dew PointF,Humidity,Sea Level PressureIn,VisibilityMPH,Wind Direction,Wind SpeedMPH,Gust SpeedMPH,PrecipitationIn,Events,Conditions,WindDirDegrees,DateUTC
12:53 AM,48.9,16.0,27,29.94,10.0,South,13.8,24.2,N/A,,Overcast,180,2012-10-13 05:53:00
1:53 AM,48.9,18.0,29,29.92,10.0,South,13.8,21.9,N/A,,Overcast,180,2012-10-13 06:53:00
2:53 AM,48.9,21.0,33,29.89,10.0,South,12.7,19.6,N/A,,Overcast,180,2012-10-13 07:53:00
3:53 AM,48.9,25.0,39,29.85,10.0,South,10.4,-,N/A,,Overcast,170,2012-10-13 08:53:00
4:53 AM,48.9,27.0,43,29.83,10.0,South,8.1,-,N/A,,Overcast,170,2012-10-13 09:53:00
5:53 AM,48.9,30.0,48,29.83,10.0,SSE,9.2,-,N/A,,Overcast,150,2012-10-13 10:53:00
6:01 AM,48.2,30.2,50,29.80,10.0,SSE,9.2,-,N/A,,Overcast,160,2012-10-13 11:01:00
6:53 AM,48.0,37.0,66,29.79,10.0,South,11.5,-,N/A,,Overcast,170,2012-10-13 11:53:00
7:53 AM,48.0,39.9,74,29.78,10.0,South,6.9,-,N/A,,Overcast,170,2012-10-13 12:53:00
8:53 AM,48.0,39.9,74,29.79,10.0,SSE,4.6,-,N/A,,Overcast,150,2012-10-13 13:53:00
10:53 AM,52.0,39.9,63,29.75,10.0,South,6.9,-,N/A,,Overcast,170,2012-10-13 15:53:00
11:53 AM,54.0,41.0,62,29.75,10.0,SSW,8.1,-,N/A,,Overcast,210,2012-10-13 16:53:00
12:53 PM,55.0,41.0,59,29.73,10.0,Variable,5.8,-,N/A,,Overcast,0,2012-10-13 17:53:00
1:41 PM,55.4,41.0,58,29.70,10.0,Variable,3.5,-,N/A,,Scattered Clouds,0,2012-10-13 18:41:00
1:53 PM,57.0,41.0,55,29.71,10.0,SE,5.8,-,N/A,,Partly Cloudy,130,2012-10-13 18:53:00
2:53 PM,57.9,41.0,53,29.70,10.0,Variable,6.9,-,N/A,,Clear,0,2012-10-13 19:53:00
3:53 PM,59.0,42.1,53,29.69,10.0,SE,6.9,-,N/A,,Clear,140,2012-10-13 20:53:00
4:53 PM,59.0,43.0,55,29.70,10.0,SE,5.8,-,N/A,,Clear,130,2012-10-13 21:53:00
5:53 PM,55.0,43.0,64,29.73,9.0,East,3.5,-,N/A,,Clear,90,2012-10-13 22:53:00
7:53 PM,48.9,43.0,80,29.76,8.0,SE,4.6,-,N/A,,Clear,130,2012-10-14 00:53:00
9:53 PM,45.0,42.1,90,29.81,5.0,Calm,Calm,-,N/A,,Clear,0,2012-10-14 02:53:00
10:04 PM,42.8,39.2,87,29.79,1.5,Calm,Calm,-,N/A,,Clear,0,2012-10-14 03:04:00
10:06 PM,42.8,39.2,87,29.79,0.8,Calm,Calm,-,N/A,,Clear,0,2012-10-14 03:06:00
10:16 PM,42.8,39.2,87,29.79,1.8,Calm,Calm,-,N/A,,Clear,0,2012-10-14 03:16:00
10:18 PM,42.8,39.2,87,29.78,3.0,Calm,Calm,-,N/A,,Clear,0,2012-10-14 03:18:00
10:29 PM,39.2,37.4,93,29.78,2.0,Calm,Calm,-,N/A,,Partly Cloudy,0,2012-10-14 03:29:00
10:48 PM,39.2,37.4,93,29.78,1.5,Calm,Calm,-,N/A,,Partly Cloudy,0,2012-10-14 03:48:00
10:53 PM,39.9,37.9,93,29.81,1.0,Calm,Calm,-,N/A,,Mist,0,2012-10-14 03:53:00
11:01 PM,41.0,39.2,93,29.78,0.5,Calm,Calm,-,N/A,Fog,Fog,0,2012-10-14 04:01:00
11:18 PM,37.4,35.6,93,29.78,1.0,NE,3.5,-,N/A,,Mist,40,2012-10-14 04:18:00
11:21 PM,37.4,35.6,93,29.78,0.8,NE,3.5,-,N/A,,Mist,50,2012-10-14 04:21:00
11:35 PM,39.2,35.6,87,29.77,1.0,NNE,3.5,-,N/A,,Mist,30,2012-10-14 04:35:00
11:49 PM,39.2,37.4,93,29.78,1.5,Calm,Calm,-,N/A,,Overcast,0,2012-10-14 04:49:00